Date String (YYYY-MM-DD hh:mm:ss) UTC,Instrument flags,absolute air pressure of the measurement (hPa),sample flow rate (lpm),inlet stack bypass flow (lpm),air temperature of the measurement (°C),ambient temperature measured by the external sensor (°C),aerosol sample conditioner tube jacket temperature (°C),OPC LED temperature (°C),internal box temperature (°C),relative humidity of the measurement (%),span deviation,mass concentration of particles derived from Lorenz-Mie calculation of OPC scattering (μg/m³),mass concentration of particles derived from Lorenz-Mie calculation of OPC scattering (μg/m³),mass concentration of particles derived from Lorenz-Mie calculation of OPC scattering (μg/m³)
DateTimeUTC,F1_M11,P_M11,Q1_M11,Q2_M11,T1_M11,T2_M11,T3_M11,T4_M11,T5_M11,U1_M11,ZSPAN_M11,X2_M11,X0_M11,X1_M11
2023-10-13 15:00:00,SystemResetWarning,0832.5,5.00,000.00,023.9,022.6,000.0,032.3,025.6,17.2,0000.0,0001.78,0006.85,0001.38
2023-10-13 15:01:00,SystemResetWarning,0832.5,4.99,000.00,023.9,022.6,000.0,032.3,025.6,17.1,0000.0,0001.85,0007.28,0001.42
2023-10-13 15:02:00,SystemResetWarning,0832.5,5.00,000.00,023.9,022.6,000.0,032.3,025.6,17.0,0000.0,0001.92,0007.18,0001.46
2023-10-13 15:03:00,SystemResetWarning,0832.5,4.99,000.00,023.9,022.6,000.0,032.3,025.6,16.8,0000.0,0001.95,0007.01,0001.50
2023-10-13 15:04:00,SystemResetWarning,0832.6,5.00,000.00,023.9,022.6,000.0,032.3,025.6,16.8,0000.0,0001.99,0007.13,0001.53
2023-10-13 15:05:00,SystemResetWarning,0832.6,5.01,000.00,023.9,022.6,000.0,032.3,025.6,16.9,0000.0,0002.07,0007.67,0001.58
2023-10-13 15:06:00,SystemResetWarning,0832.5,5.00,000.00,024.0,022.6,000.0,032.3,025.6,17.1,0000.0,0002.13,0007.08,0001.62
2023-10-13 15:07:00,SystemResetWarning,0832.5,5.01,000.00,024.0,022.7,000.0,032.3,025.6,17.3,0000.0,0002.17,0007.19,0001.65
2023-10-13 15:08:00,SystemResetWarning,0832.5,5.00,000.00,024.0,022.7,000.0,032.3,025.7,17.2,0000.0,0002.17,0007.18,0001.67
2023-10-13 15:09:00,SystemResetWarning,0832.6,5.00,000.00,024.0,022.7,000.0,032.3,025.7,16.6,0000.0,0002.16,0006.06,0001.71
2023-10-13 15:10:00,SystemResetWarning,0832.5,5.00,000.00,024.0,022.7,000.0,032.4,025.7,16.2,0000.0,0002.20,0006.09,0001.75
2023-10-13 15:11:00,SystemResetWarning,0832.6,4.99,000.00,024.0,022.7,000.0,032.4,025.7,16.3,0000.0,0002.25,0007.67,0001.76
2023-10-13 15:12:00,SystemResetWarning,0832.6,5.00,000.00,024.0,022.7,000.0,032.4,025.7,16.4,0000.0,0002.30,0007.46,0001.79
2023-10-13 15:13:00,SystemResetWarning,0832.6,5.00,000.00,024.0,022.7,000.0,032.4,025.7,16.1,0000.0,0002.31,0007.43,0001.80
2023-10-13 15:14:00,SystemResetWarning,0832.6,5.00,000.00,024.0,022.8,000.0,032.4,025.7,15.9,0000.0,0002.37,0007.61,0001.81
2023-10-13 15:15:00,SystemResetWarning,0832.7,5.00,000.00,024.1,022.8,000.0,032.4,025.8,15.6,0000.0,0002.42,0007.66,0001.81
2023-10-13 15:16:00,SystemResetWarning,0832.7,5.01,000.00,024.1,022.8,000.0,032.4,025.8,15.4,0000.0,0002.41,0007.45,0001.80
2023-10-13 15:17:00,SystemResetWarning,0832.7,5.01,000.00,024.1,022.8,000.0,032.4,025.8,15.3,0000.0,0002.41,0007.67,0001.81
2023-10-13 15:18:00,SystemResetWarning,0832.7,5.00,000.00,024.1,022.8,000.0,032.5,025.8,15.1,0000.0,0002.41,0007.35,0001.82
2023-10-13 15:19:00,SystemResetWarning,0832.6,5.00,000.00,024.1,022.8,000.0,032.5,025.9,15.1,0000.0,0002.38,0006.93,0001.82
2023-10-13 15:20:00,SystemResetWarning,0832.7,5.00,000.00,024.1,022.8,000.0,032.5,025.9,15.1,0000.0,0002.38,0007.06,0001.81
2023-10-13 15:21:00,SystemResetWarning,0832.6,5.00,000.00,024.1,022.8,000.0,032.5,025.9,15.0,0000.0,0002.33,0007.07,0001.80
2023-10-13 15:22:00,SystemResetWarning,0832.7,5.00,000.00,024.1,022.8,000.0,032.5,025.9,15.1,0000.0,0002.27,0005.34,0001.78
2023-10-13 15:23:00,SystemResetWarning,0832.7,5.00,000.00,024.1,022.8,000.0,032.5,025.9,15.3,0000.0,0002.25,0004.74,0001.76
2023-10-13 15:24:00,SystemResetWarning,0832.6,5.00,000.00,024.1,022.9,000.0,032.5,025.9,15.5,0000.0,0002.25,0004.79,0001.74
2023-10-13 15:25:00,SystemResetWarning,0832.6,5.00,000.00,024.2,022.9,000.0,032.5,025.9,15.5,0000.0,0002.18,0004.42,0001.72
2023-10-13 15:26:00,SystemResetWarning,0832.6,5.00,000.00,024.2,022.9,000.0,032.5,025.9,15.7,0000.0,0002.13,0004.30,0001.72
2023-10-13 15:27:00,SystemResetWarning,0832.7,4.99,000.00,024.2,022.9,000.0,032.6,025.9,16.0,0000.0,0002.13,0003.87,0001.74
2023-10-13 15:28:00,SystemResetWarning,0832.6,5.01,000.00,024.2,022.9,000.0,032.5,026.0,16.5,0000.0,0002.16,0003.32,0001.76
2023-10-13 15:29:00,SystemResetWarning,0832.7,5.00,000.00,024.2,022.9,000.0,032.5,026.0,16.7,0000.0,0002.19,0003.42,0001.77
2023-10-13 15:30:00,SystemResetWarning,0832.7,5.01,000.00,024.2,022.9,000.0,032.6,026.0,16.2,0000.0,0002.23,0003.97,0001.79
2023-10-13 15:31:00,SystemResetWarning,0832.6,5.00,000.00,024.2,022.9,000.0,032.6,026.0,15.7,0000.0,0002.30,0004.67,0001.80
2023-10-13 15:32:00,SystemResetWarning,0832.6,5.00,000.00,024.2,022.9,000.0,032.6,025.9,15.5,0000.0,0002.36,0004.95,0001.83
2023-10-13 15:33:00,SystemResetWarning,0832.6,5.00,000.00,024.2,022.9,000.0,032.6,025.9,15.8,0000.0,0002.42,0005.12,0001.87
2023-10-13 15:34:00,SystemResetWarning,0832.7,5.00,000.00,024.2,022.9,000.0,032.6,025.9,15.7,0000.0,0002.44,0005.38,0001.90
2023-10-13 15:35:00,SystemResetWarning,0832.7,4.99,000.00,024.2,022.9,000.0,032.6,025.9,15.9,0000.0,0002.47,0005.99,0001.94
2023-10-13 15:36:00,SystemResetWarning,0832.6,5.00,000.00,024.2,022.8,000.0,032.6,026.0,16.1,0000.0,0002.52,0006.52,0001.98
2023-10-13 15:37:00,SystemResetWarning,0832.6,5.00,000.00,024.2,022.8,000.0,032.6,025.9,16.5,0000.0,0002.58,0006.72,0002.01
2023-10-13 15:38:00,SystemResetWarning,0832.6,5.01,000.00,024.2,022.9,000.0,032.6,026.0,16.5,0000.0,0002.65,0007.07,0002.02
2023-10-13 15:39:00,SystemResetWarning,0832.6,5.00,000.00,024.2,022.9,000.0,032.6,026.0,16.4,0000.0,0002.71,0007.18,0002.03
2023-10-13 15:40:00,SystemResetWarning,0832.6,5.01,000.00,024.3,023.0,000.0,032.6,026.0,16.1,0000.0,0002.70,0007.14,0002.03
2023-10-13 15:41:00,SystemResetWarning,0832.6,5.01,000.00,024.3,023.0,000.0,032.6,026.0,16.0,0000.0,0002.72,0006.87,0002.05
2023-10-13 15:42:00,SystemResetWarning,0832.7,4.99,000.00,024.3,023.0,000.0,032.7,026.0,15.9,0000.0,0002.68,0006.14,0002.07
2023-10-13 15:43:00,SystemResetWarning,0832.7,4.99,000.00,024.3,023.1,000.0,032.7,026.1,16.0,0000.0,0002.66,0005.86,0002.08
2023-10-13 15:44:00,SystemResetWarning,0832.6,5.00,000.00,024.3,023.1,000.0,032.7,026.1,15.8,0000.0,0002.62,0005.60,0002.08
2023-10-13 15:45:00,SystemResetWarning,0832.6,5.02,000.00,024.3,023.1,000.0,032.7,026.1,15.8,0000.0,0002.61,0005.41,0002.10
2023-10-13 15:46:00,SystemResetWarning,0832.6,5.00,000.00,024.3,023.1,000.0,032.7,026.1,15.9,0000.0,0002.59,0004.83,0002.09
2023-10-13 15:47:00,SystemResetWarning,0832.7,4.99,000.00,024.4,023.1,000.0,032.7,026.1,15.9,0000.0,0002.52,0004.07,0002.06
2023-10-13 15:48:00,SystemResetWarning,0832.7,5.00,000.00,024.3,023.1,000.0,032.7,026.1,15.8,0000.0,0002.48,0003.94,0002.01
2023-10-13 15:49:00,SystemResetWarning,0832.7,5.00,000.00,024.4,023.1,000.0,032.7,026.1,15.8,0000.0,0002.41,0003.60,0001.99
2023-10-13 15:50:00,SystemResetWarning,0832.7,5.00,000.00,024.4,023.1,000.0,032.7,026.1,15.8,0000.0,0002.31,0003.43,0001.96
2023-10-13 15:51:00,SystemResetWarning,0832.7,5.00,000.00,024.4,023.1,000.0,032.7,026.1,15.5,0000.0,0002.23,0003.30,0001.92
2023-10-13 15:52:00,SystemResetWarning,0832.7,5.01,000.00,024.4,023.1,000.0,032.7,026.1,15.6,0000.0,0002.18,0003.17,0001.87
2023-10-13 15:53:00,SystemResetWarning,0832.8,5.01,000.00,024.4,023.1,000.0,032.7,026.1,15.7,0000.0,0002.11,0003.13,0001.82
2023-10-13 15:54:00,SystemResetWarning,0832.9,5.00,000.00,024.4,023.1,000.0,032.7,026.1,15.5,0000.0,0002.03,0002.98,0001.75
2023-10-13 15:55:00,SystemResetWarning,0832.8,5.00,000.00,024.4,023.1,000.0,032.7,026.1,15.5,0000.0,0001.96,0002.86,0001.69
2023-10-13 15:56:00,SystemResetWarning,0832.8,4.99,000.00,024.4,023.1,000.0,032.7,026.1,15.4,0000.0,0001.89,0002.73,0001.63
2023-10-13 15:57:00,SystemResetWarning,0832.8,5.00,000.00,024.4,023.1,000.0,032.7,026.1,15.4,0000.0,0001.82,0002.62,0001.59
2023-10-13 15:58:00,SystemResetWarning,0832.8,5.00,000.00,024.4,023.1,000.0,032.7,026.1,15.3,0000.0,0001.79,0002.58,0001.57
2023-10-13 15:59:00,SystemResetWarning,0832.8,5.00,000.00,024.4,023.1,000.0,032.7,026.2,15.6,0000.0,0001.77,0002.54,0001.57
